Location: Newark
(38.7000°N, 115.1000°W)
Time: 08:22:50
(UTC+00:00)

Hubble Space Telescope - Visible Passes

Search period start: 25 January 2020 00:00
Search period end: 04 February 2020 00:00
Orbit: 536 x 540 km, 28.5° (Epoch: 24 January)

Date Brightness Start Highest point End Pass type
(mag) Time Alt. Az. Time Alt. Az. Time Alt. Az.
29 Jan 3.6 13:44:41 10° S 13:45:52 11° SSE 13:47:04 10° SE visible
30 Jan 3.4 13:33:14 10° SSW 13:35:07 13° SSE 13:37:01 10° SE visible
31 Jan 3.3 13:22:05 10° SSW 13:24:23 15° SSE 13:26:41 10° SE visible
01 Feb 3.1 13:11:20 11° SSW 13:13:39 16° S 13:16:14 10° SE visible
02 Feb 2.9 13:01:27 15° SSW 13:02:55 17° S 13:05:42 10° SE visible
03 Feb 2.7 12:51:31 18° S 12:52:12 19° S 12:55:05 10° SE visible
